Portada
METAR-TAF:

METAR-TAF

Aeroports :

Mora Municipal Airport

Mora, Minnesota, Estats Units d'Amèrica

latitud: 45-53-10N, longitud: 093-16-18W, altitud: 309 m

Observació

L'informe es va fer fa 23 minuts, a les 03:56 UTC
Vent calma
Temperatura 18°C
Humitat 94%
Pressió 1020 hPa
Visibilitat: 16.1 km
Cel clar

METAR: KJMR 180356Z AUTO 00000KT 10SM CLR 18/17 A3011 RMK AO2

Hora: 23:19 (04:19 UTC)


TAF: manca

Observacions i pronòstics meteorològics de més de 4000 aeroports (METAR i TAF).

Les estacions disponibles són els punts grocs i vermells al mapa.

Posi el ratolí al punt desitjat per veure el nom de l'estació.

Feu clic per veure les observacions i els pronòstics meteorològics.

Per canviar el mapa: feu clic els botons verds amb una creu de color negre per apropar; al botó verd amb un guió per allunyar la imatge; o en les fletxes verdes per a mapes adjacents.


METAR-TAF: